Retour au catalogue

STARLINK-32383

ActifCommunicationsVLEO
NORAD 61891·PAYLOAD·🇺🇸 United States

Lancé Nov 9, 2024 depuis Vandenberg Space Force Base

Loading…

Prochains Passages (prochaines 24 heures)

TLE

FraisSource: CelesTrak SupGP

Époque: Sep 15, 2026, 02:52 UTC

1 61891C 24204T   26258.11993056  .00050632  00000+0  14955-2 0  2583
2 61891  53.1583 323.0877 0001200  89.9406  69.9872 15.34374942    15

Suivez STARLINK-32383 en temps réel avec AllMySat

Download on the App Store